Location: New Frontier Mobile Home Park
(32.8448°N, 116.9675°W)
Time: 22:38:45
(UTC+00:00)

CZ-4B R/B - Pass Details

Date: 14 July 2020
Orbit: 390 x 465 km, 97.6° (Epoch: 05 August)

Event Time Altitude Azimuth Distance (km) Brightness Sun altitude
Rises 11:25:33 0° 137° (SE) 2,475 5.2 -15.8°
Reaches altitude 10° 11:27:58 10° 119° (ESE) 1,611 4.5 -15.4°
Maximum altitude 11:30:31 20° 72° (ENE) 1,148 4.4 -15.0°
Drops below altitude 10° 11:33:05 10° 24° (NNE) 1,623 5.2 -14.5°
Sets 11:35:31 0° 7° (N) 2,501 5.9 -14.1°
